Flag for Australia Weather past 2 weeks in Alice Springs, Northern Territory, Australia

Now
82 °F

Sunny.


Feels Like: 80 °F
Forecast: 60 / 81 °F
Wind: 8 mph from Southeast

Location: Alice Springs Aerodrome


UV Index: 5 (Moderate)

Visibility: N/A


Pressure: 29.98 "Hg

Humidity: 19%

Dew point: 36 °F

Location of Alice SpringsLocation

Historic Weather in Alice Springs

°F

Alice Springs temperature yesterday

Maximum temperature yesterday: 86 °F (at 1:30 PM)
Minimum temperature yesterday: 54 °F (at 3:30 AM)
Average temperature yesterday: 70 °F

Past Weeks' High & Low Weather Summary

 TemperatureHumidityPressure
High86 °F (Apr 22, 1:30 PM)100% (Apr 8, 8:34 PM)30.21 "Hg (Apr 8, 8:34 PM)
Low50 °F (Apr 17, 7:00 AM)11% (Apr 22, 2:30 PM)29.89 "Hg (Apr 9, 3:30 AM)
Average67 °F58%30.06 "Hg
* Reported Apr 8 4:30 PM — Apr 23 5:00 PM, Alice Springs, Weather by CustomWeather, © 2014

Note: Actual official high and low records may vary slightly from our data, if they occured in-between our weather recording intervals... More about our weather records

Advertising

Historic Weather Conditions — Data for Previous 24 hours

 ConditionsComfort  
Time TempWeatherWind HumidityBarometerVisibility
5:00 PM
Apr 23
84 °FPassing clouds.9 mph14%29.98 "HgN/A
4:30 PM84 °FSunny.8 mph15%29.98 "Hg10 mi
4:00 PM84 °FPassing clouds.7 mph16%29.98 "HgN/A
3:30 PM84 °FSunny.9 mph13%29.98 "Hg10 mi
3:00 PM84 °FPassing clouds.8 mph16%29.98 "HgN/A
2:30 PM86 °FSunny.9 mph15%30.01 "Hg10 mi
2:00 PM84 °FPassing clouds.8 mph16%30.01 "HgN/A
1:30 PM84 °FPassing clouds.8 mph18%30.01 "HgN/A
1:00 PM82 °FSunny.8 mph19%30.01 "Hg10 mi
12:30 PM81 °FPassing clouds.7 mph20%30.04 "HgN/A
12:00 PM81 °FSunny.5 mph20%30.07 "Hg10 mi
11:30 AM81 °FPassing clouds.6 mph21%30.07 "HgN/A
11:00 AM79 °FPassing clouds.5 mph24%30.07 "HgN/A
10:30 AM75 °FSunny.3 mph27%30.09 "Hg10 mi
10:00 AM73 °FSunny.2 mph29%30.09 "Hg10 mi
9:30 AM72 °FSunny.1 mph33%30.09 "Hg10 mi
9:00 AM70 °FSunny.3 mph35%30.07 "Hg10 mi
8:30 AM66 °FSunny.6 mph37%30.07 "Hg10 mi
8:00 AM63 °FSunny.7 mph49%30.07 "Hg10 mi
7:30 AM57 °FSunny.5 mph63%30.07 "Hg10 mi
6:30 AM54 °FSunny.8 mph63%30.04 "Hg10 mi
6:00 AM52 °FClear.7 mph77%30.04 "Hg10 mi
5:30 AM54 °FClear.6 mph72%30.04 "HgN/A
5:00 AM54 °FClear.6 mph72%30.04 "HgN/A
4:30 AM55 °FClear.6 mph59%30.01 "HgN/A
3:30 AM55 °FClear.6 mph63%30.01 "HgN/A
2:30 AM55 °FClear.No wind67%30.01 "HgN/A
1:30 AM57 °FClear.No wind67%30.04 "HgN/A
1:00 AM59 °FClear.6 mph59%30.04 "HgN/A
12:30 AM59 °FClear.3 mph63%30.04 "HgN/A
11:30 PM
Apr 22
61 °FClear.5 mph52%30.07 "HgN/A
11:00 PM61 °FClear.No wind52%30.07 "HgN/A
10:30 PM63 °FClear.No wind52%30.07 "HgN/A
10:00 PM64 °FClear.No wind49%30.07 "HgN/A
9:30 PM63 °FClear.3 mph56%30.07 "HgN/A
9:00 PM68 °FClear.6 mph35%30.04 "HgN/A
8:30 PM68 °FClear.7 mph35%30.04 "HgN/A
8:00 PM70 °FClear.7 mph31%30.04 "HgN/A
7:30 PM73 °FClear.8 mph25%30.01 "HgN/A
7:00 PM73 °FClear.8 mph27%30.01 "HgN/A
6:30 PM73 °FClear.8 mph27%30.01 "HgN/A
6:00 PM79 °FClear.7 mph21%29.98 "HgN/A
Weather by CustomWeather, © 2014

See weather overview